Richlands, VA

11:25 PM EST on November 22, 2017 (GMT -0500)
Tazewell County

Weather History for KJFZ - May, 2013

Change the Weather History Date:

Saturday, May 4, 2013

  Actual Average (KBLF) Record (KBLF)
Temperature  
Mean Temperature 52 °F -  
Max Temperature 59 °F 64 °F 80 °F (1996)
Min Temperature 44 °F 46 °F 33 °F (2004)
Degree Days  
Heating Degree Days 14    
Growing Degree Days 2 (Base 50)    
Moisture  
Dew Point 38 °F    
Average Humidity 63    
Maximum Humidity 80    
Minimum Humidity 39    
Precipitation  
Precipitation 0.00 in - - ()
Sea Level Pressure  
Sea Level Pressure 30.07 in    
Wind  
Wind Speed 13 mph (ESE)    
Max Wind Speed 24 mph    
Max Gust Speed 34 mph    
Visibility 10 miles    
Events      
Averages and records for this station are not official NWS values.
T = Trace of Precipitation, MM = Missing Value Source: NWS Daily Summary

Daily Weather History Graph

Daily Weather History Graph

Search for Another Location

Airport or City:

Trip Planner

Search our weather history database for the weather conditions in past years. The results will help you decide how hot, cold, wet, or windy it might be!

Date:

Astronomy

May. 04, 2013 Rise Set
Actual Time 6:29 AM EDT 8:19 PM EDT
Civil Twilight 6:01 AM EDT 8:47 PM EDT
Nautical Twilight 5:26 AM EDT 9:21 PM EDT
Astronomical Twilight 4:50 AM EDT 9:58 PM EDT
Moon 3:19 AM EDT (5/4) 3:22 PM EDT (5/4)
Length of Visible Light 14h 46m
Length of Day
13h 50m
Waning Crescent, 27% of the Moon is Illuminated
May 4
Waning Crescent
May 9
New
May 18
First Quarter
May 25
Full
May 31
Last Quarter

Hourly Weather History & Observations

Time (EDT) Temp. Windchill Dew Point Humidity Pressure Visibility Wind Dir Wind Speed Gust Speed Precip Events Conditions
12:15 AM 53.6 °F - 42.4 °F 66% 30.12 in 10.0 mi ESE 15.0 mph 26.5 mph N/A   Scattered Clouds
12:35 AM 53.2 °F - 42.4 °F 67% 30.12 in 10.0 mi ESE 11.5 mph 20.7 mph N/A   Scattered Clouds
12:55 AM 52.9 °F - 41.9 °F 66% 30.12 in 10.0 mi ESE 13.8 mph 23.0 mph N/A   Scattered Clouds
1:15 AM 52.7 °F - 41.0 °F 64% 30.12 in 10.0 mi SE 11.5 mph 25.3 mph N/A   Scattered Clouds
1:35 AM 52.0 °F - 39.7 °F 63% 30.11 in 10.0 mi ESE 17.3 mph 26.5 mph N/A   Scattered Clouds
1:55 AM 51.4 °F - 39.7 °F 64% 30.11 in 10.0 mi ESE 13.8 mph 26.5 mph N/A   Clear
2:15 AM 50.7 °F - 39.6 °F 66% 30.10 in 10.0 mi ESE 18.4 mph 26.5 mph N/A   Clear
2:35 AM 50.2 °F - 39.2 °F 66% 30.10 in 10.0 mi ESE 9.2 mph 17.3 mph N/A   Clear
2:55 AM 49.5 °F - 37.6 °F 64% 30.09 in 10.0 mi ESE 10.4 mph 23.0 mph N/A   Clear
3:15 AM 48.7 °F - 36.9 °F 64% 30.08 in 10.0 mi ESE 13.8 mph 21.9 mph N/A   Clear
3:35 AM 47.8 °F - 37.0 °F 66% 30.08 in 10.0 mi ESE 11.5 mph 20.7 mph N/A   Clear
3:55 AM 47.1 °F - 36.3 °F 66% 30.08 in 10.0 mi ESE 9.2 mph 25.3 mph N/A   Clear
4:15 AM 46.4 °F 42.9 °F 35.6 °F 66% 30.09 in 10.0 mi SE 6.9 mph 16.1 mph N/A   Clear
4:35 AM 45.9 °F 41.7 °F 34.9 °F 66% 30.09 in 10.0 mi ESE 8.1 mph 23.0 mph N/A   Scattered Clouds
4:55 AM 45.3 °F 39.7 °F 35.4 °F 68% 30.09 in 10.0 mi ESE 11.5 mph 21.9 mph N/A   Scattered Clouds
5:15 AM 44.8 °F 41.0 °F 35.1 °F 69% 30.09 in 10.0 mi East 6.9 mph 18.4 mph N/A   Scattered Clouds
5:35 AM 44.6 °F 38.1 °F 34.5 °F 68% 30.09 in 10.0 mi SE 13.8 mph 24.2 mph N/A   Clear
5:55 AM 44.2 °F 39.7 °F 35.1 °F 70% 30.09 in 10.0 mi ESE 8.1 mph 18.4 mph N/A   Clear
6:15 AM 44.1 °F 39.0 °F 36.0 °F 73% 30.08 in 10.0 mi SE 9.2 mph 21.9 mph N/A   Clear
6:35 AM 44.1 °F 36.8 °F 36.5 °F 75% 30.08 in 10.0 mi SE 16.1 mph 24.2 mph N/A   Clear
6:55 AM 44.1 °F 35.9 °F 37.4 °F 77% 30.08 in 10.0 mi ESE 19.6 mph 34.5 mph N/A   Clear
7:15 AM 44.1 °F 35.0 °F 37.9 °F 79% 30.08 in 10.0 mi ESE 24.2 mph 31.1 mph N/A   Clear
7:35 AM 44.2 °F 35.9 °F 38.3 °F 80% 30.08 in 10.0 mi ESE 20.7 mph 27.6 mph N/A   Scattered Clouds
7:55 AM 44.6 °F 37.4 °F 38.7 °F 80% 30.09 in 10.0 mi ESE 16.1 mph 24.2 mph N/A   Mostly Cloudy
8:15 AM 45.0 °F 38.9 °F 39.0 °F 80% 30.09 in 10.0 mi SE 12.7 mph 25.3 mph N/A   Overcast
8:35 AM 45.0 °F 40.1 °F 39.2 °F 80% 30.09 in 10.0 mi ESE 9.2 mph 23.0 mph N/A   Overcast
8:55 AM 45.7 °F 39.5 °F 39.4 °F 79% 30.08 in 10.0 mi SE 13.8 mph 20.7 mph N/A   Overcast
9:15 AM 46.2 °F 39.5 °F 39.7 °F 78% 30.09 in 10.0 mi ESE 16.1 mph 24.2 mph N/A   Overcast
9:35 AM 46.6 °F - 40.1 °F 78% 30.08 in 10.0 mi SE 10.4 mph 28.8 mph N/A   Overcast
9:55 AM 47.3 °F - 40.3 °F 77% 30.08 in 10.0 mi SE 13.8 mph 23.0 mph N/A   Overcast
10:15 AM 47.5 °F - 40.5 °F 77% 30.08 in 10.0 mi SE 12.7 mph 19.6 mph N/A   Overcast
10:35 AM 47.7 °F - 40.5 °F 76% 30.08 in 10.0 mi SE 13.8 mph 32.2 mph N/A   Mostly Cloudy
10:55 AM 48.7 °F - 41.0 °F 75% 30.08 in 10.0 mi SE 19.6 mph 28.8 mph N/A   Mostly Cloudy
11:15 AM 50.2 °F - 42.1 °F 74% 30.08 in 10.0 mi SE 11.5 mph 24.2 mph N/A   Overcast
11:35 AM 50.2 °F - 42.1 °F 74% 30.08 in 10.0 mi SSE 15.0 mph 24.2 mph N/A   Overcast
11:55 AM 51.1 °F - 42.3 °F 72% 30.08 in 10.0 mi SE 15.0 mph 23.0 mph N/A   Overcast
12:15 PM 52.0 °F - 43.0 °F 71% 30.08 in 10.0 mi ESE 9.2 mph 18.4 mph N/A   Overcast
12:35 PM 53.4 °F - 43.5 °F 69% 30.08 in 10.0 mi ESE 13.8 mph 21.9 mph N/A   Overcast
12:55 PM 52.0 °F - 43.3 °F 72% 30.08 in 10.0 mi ESE 12.7 mph 19.6 mph N/A   Overcast
1:15 PM 51.8 °F - 43.2 °F 72% 30.08 in 10.0 mi SE 13.8 mph 21.9 mph N/A   Overcast
1:35 PM 52.0 °F - 43.7 °F 73% 30.08 in 10.0 mi SE 15.0 mph 21.9 mph N/A   Overcast
1:55 PM 52.7 °F - 43.0 °F 70% 30.08 in 10.0 mi SE 12.7 mph 20.7 mph N/A   Overcast
2:15 PM 53.8 °F - 42.8 °F 66% 30.07 in 10.0 mi ESE 11.5 mph 24.2 mph N/A   Overcast
2:35 PM 55.0 °F - 40.8 °F 59% 30.07 in 10.0 mi ESE 10.4 mph 26.5 mph N/A   Overcast
2:55 PM 56.3 °F - 41.2 °F 57% 30.06 in 10.0 mi SE 11.5 mph 18.4 mph N/A   Overcast
3:15 PM 56.3 °F - 39.2 °F 53% 30.05 in 10.0 mi East 11.5 mph 20.7 mph N/A   Overcast
3:35 PM 57.2 °F - 38.1 °F 49% 30.05 in 10.0 mi SE 6.9 mph 23.0 mph N/A   Overcast
3:55 PM 57.4 °F - 37.8 °F 48% 30.05 in 10.0 mi ESE 10.4 mph 23.0 mph N/A   Overcast
4:15 PM 57.9 °F - 37.6 °F 47% 30.04 in 10.0 mi East 15.0 mph 25.3 mph N/A   Overcast
4:35 PM 57.6 °F - 36.0 °F 44% 30.05 in 10.0 mi ESE 10.4 mph 24.2 mph N/A   Overcast
4:55 PM 58.1 °F - 35.8 °F 43% 30.03 in 10.0 mi ESE 8.1 mph 18.4 mph N/A   Overcast
5:15 PM 57.6 °F - 35.1 °F 43% 30.02 in 10.0 mi ESE 10.4 mph 24.2 mph N/A   Overcast
5:35 PM 57.9 °F - 35.1 °F 42% 30.01 in 10.0 mi ESE 4.6 mph 19.6 mph N/A   Mostly Cloudy
5:55 PM 59.9 °F - 35.8 °F 41% 30.01 in 10.0 mi SE 6.9 mph 19.6 mph N/A   Scattered Clouds
6:15 PM 59.9 °F - 35.2 °F 40% 30.02 in 10.0 mi East 10.4 mph 21.9 mph N/A   Clear
6:35 PM 59.0 °F - 35.2 °F 41% 30.02 in 10.0 mi SE 9.2 mph - N/A   Clear
6:55 PM 58.3 °F - 34.2 °F 40% 30.02 in 10.0 mi ESE 5.8 mph 21.9 mph N/A   Clear
7:15 PM 58.1 °F - 33.1 °F 39% 30.02 in 10.0 mi ESE 5.8 mph - N/A   Clear
7:35 PM 57.4 °F - 32.9 °F 40% 30.02 in 10.0 mi East 6.9 mph - N/A   Clear
7:55 PM 56.8 °F - 33.4 °F 41% 30.02 in 10.0 mi East 9.2 mph 20.7 mph N/A   Clear
8:15 PM 56.7 °F - 33.3 °F 41% 30.02 in 10.0 mi East 10.4 mph 18.4 mph N/A   Clear
8:35 PM 56.3 °F - 33.8 °F 43% 30.02 in 10.0 mi ESE 11.5 mph 23.0 mph N/A   Clear
8:55 PM 55.4 °F - 36.1 °F 48% 30.01 in 10.0 mi East 10.4 mph 24.2 mph N/A   Clear
9:15 PM 54.5 °F - 39.7 °F 57% 30.02 in 10.0 mi ESE 12.7 mph 24.2 mph N/A   Clear
9:35 PM 53.1 °F - 40.5 °F 62% 30.03 in 10.0 mi ESE 16.1 mph 29.9 mph N/A   Clear
9:55 PM 51.6 °F - 40.1 °F 65% 30.05 in 10.0 mi ESE 15.0 mph 25.3 mph N/A   Clear
10:15 PM 50.0 °F - 39.2 °F 66% 30.05 in 10.0 mi ESE 15.0 mph 23.0 mph N/A   Clear
10:35 PM 49.5 °F - 38.5 °F 66% 30.06 in 10.0 mi ESE 8.1 mph 26.5 mph N/A   Clear
10:55 PM 49.3 °F - 38.5 °F 66% 30.07 in 10.0 mi ESE 12.7 mph 21.9 mph N/A   Scattered Clouds
11:15 PM 49.1 °F - 38.8 °F 68% 30.07 in 10.0 mi ESE 11.5 mph 24.2 mph N/A   Scattered Clouds
11:35 PM 49.5 °F - 39.2 °F 68% 30.06 in 10.0 mi ESE 11.5 mph 26.5 mph N/A   Mostly Cloudy
11:55 PM 49.3 °F - 39.7 °F 70% 30.06 in 10.0 mi East 10.4 mph 21.9 mph N/A   Overcast